Location: Aydie
(43.5695°N, 0.1043°W)
Time: 12:34:07
(UTC+00:00)

COSMO-SKYMED 1 - Pass Details

Date: 17 November 2025
Orbit: 579 x 581 km, 97.9° (Epoch: 06 December)

Event Time Altitude Azimuth Distance (km) Brightness Sun altitude
Exits shadow 18:57:41 25° 343° (NNW) 1,192 4.1 -26.0°
Maximum altitude 18:59:37 42° 289° (WNW) 840 3.6 -26.4°
Drops below altitude 10° 19:03:28 10° 218° (SW) 1,890 5.5 -27.1°
Sets 19:05:41 0° 212° (SSW) 2,784 6.3 -27.5°
